Location: Washington
(38.8950°N, 77.0370°W)
Time: 22:53:09
(UTC-04:00)

Amateur Radio Satellites - All Passes

Search period start: 04 May 2016 22:23
Search period end: 05 May 2016 22:23
Location: Washington, 38.8950°N, 77.0370°W

Satellite Date Start Highest point End Downlink Frequencies (MHz)
Time Altitude Azimuth
UNISAT 6 04 May 22:26:15 22:28:17 13° 91° (E) 22:30:17 437.425
SRMSAT 04 May 22:37:44 22:38:44 10° 187° (S) 22:39:44 437.500
VELOX 1 04 May 22:40:23 22:42:04 12° 63° (ENE) 22:43:45 145.980
RS-15 04 May 22:41:03 22:52:17 69° 305° (NW) 23:04:15 29.354- 29.394
TIGRISAT 04 May 22:42:08 22:45:12 19° 94° (E) 22:48:14 435.000
Oscar 11 04 May 22:51:52 22:54:28 16° 268° (W) 22:57:04 145.826/435.025
PRISM 04 May 22:56:18 22:57:43 12° 297° (WNW) 22:59:08 437.425
HUMSAT D 04 May 22:56:24 23:00:35 61° 260° (W) 23:04:43 437.325/437.525
ANTELSAT 04 May 23:06:46 23:10:48 38° 98° (E) 23:14:46 437.575/2403.000
FUNcube-1 04 May 23:06:59 23:09:19 14° 268° (W) 23:11:38 145.935
DELFI C3 04 May 23:08:31 23:11:13 18° 266° (W) 23:13:57 145.870
AISAT 04 May 23:10:28 23:14:11 27° 69° (ENE) 23:17:55 437.250
GONETS M04 04 May 23:30:21 23:36:50 23° 81° (E) 23:43:18
O/OREOS (USA 219) 04 May 23:31:27 23:33:42 13° 54° (NE) 23:35:56 437.305
PCSat 04 May 23:33:57 23:37:38 18° 46° (NE) 23:41:19 145.827
ESTCUBE 1 04 May 23:37:18 23:41:44 69° 75° (ENE) 23:46:13 437.505/2401.250
CUBEBUG 1 04 May 23:40:22 23:44:36 51° 73° (ENE) 23:48:54 437.445
50 SAT 04 May 23:56:07 23:59:46 82° 255° (WSW) 00:03:26 437.505
Cosmos 2499 05 May 00:00:46 00:04:16 14° 79° (E) 00:07:46 435.465 / 435.565
UNISAT 6 05 May 00:01:08 00:05:17 48° 287° (WNW) 00:09:22 437.425
DX 1 05 May 00:02:38 00:07:00 86° 74° (ENE) 00:11:23 434.975-435.025
UKube-1 05 May 00:04:58 00:09:16 74° 75° (ENE) 00:13:36 .
DUCHIFAT 1 05 May 00:08:17 00:12:02 31° 97° (E) 00:15:46 145.980
QB50P2 05 May 00:11:39 00:15:40 40° 99° (E) 00:19:38 145.880/145.840
VELOX 1 05 May 00:13:34 00:17:57 65° 258° (WSW) 00:22:24 145.980
POLYITAN 1 05 May 00:13:51 00:17:51 41° 99° (E) 00:21:49 437.675
POPSAT HIP 1 05 May 00:15:49 00:19:51 42° 99° (E) 00:23:50 437.405
TIGRISAT 05 May 00:18:06 00:21:58 33° 289° (WNW) 00:25:47 435.000
QB50P1 05 May 00:18:46 00:22:52 46° 99° (E) 00:26:55 145.935-145.965
SPROUT 05 May 00:30:37 00:34:55 70° 75° (ENE) 00:39:14 437.525
BUGSAT 1 05 May 00:40:40 00:44:30 34° 98° (E) 00:48:16 437.445
ANTELSAT 05 May 00:44:23 00:47:12 17° 294° (WNW) 00:50:00 437.575/2403.000
AISAT 05 May 00:46:49 00:50:34 26° 264° (W) 00:54:21 437.250
NANOSAT C BR1 05 May 00:52:14 00:56:27 72° 285° (WNW) 01:00:37 145.865
TISAT 1 05 May 00:56:29 01:00:27 39° 72° (ENE) 01:04:25 437.305
AIST 1 05 May 00:57:28 01:01:43 61° 279° (W) 01:06:03
RS-15 05 May 00:58:24 01:07:33 25° 334° (NNW) 01:17:04 29.354- 29.394
O/OREOS (USA 219) 05 May 01:09:05 01:13:33 62° 252° (WSW) 01:17:57 437.305
PCSat 05 May 01:16:10 01:21:36 72° 245° (WSW) 01:26:58 145.827
CUBEBUG 1 05 May 01:19:06 01:21:11 13° 269° (W) 01:23:17 437.445
GONETS M04 05 May 01:23:57 01:32:45 70° 279° (W) 01:41:36
CUSAT 1 05 May 01:26:30 01:33:19 36° 73° (ENE) 01:40:35 437.405
JAS-2 05 May 01:34:59 01:42:26 45° 97° (E) 01:49:43 435.910
DUCHIFAT 1 05 May 01:44:25 01:47:32 20° 293° (WNW) 01:50:37 145.980
QB50P2 05 May 01:48:29 01:51:08 16° 294° (WNW) 01:53:45 145.880/145.840
Cosmos 2499 05 May 01:49:14 01:56:19 81° 277° (W) 02:03:28 435.465 / 435.565
POLYITAN 1 05 May 01:50:44 01:53:18 16° 294° (WNW) 01:55:53 437.675
POPSAT HIP 1 05 May 01:52:44 01:55:16 16° 294° (WNW) 01:57:47 437.405
QB50P1 05 May 01:55:56 01:58:13 14° 295° (WNW) 02:00:30 145.935-145.965
ITUPSAT 1 05 May 01:56:46 02:01:00 33° 70° (ENE) 02:05:16 437.325
SWISSCUBE 05 May 02:04:36 02:09:07 45° 71° (ENE) 02:13:38 437.505
BEESAT 3 05 May 02:05:47 02:08:00 14° 45° (NE) 02:10:12 437.485
BUGSAT 1 05 May 02:16:44 02:19:36 18° 294° (WNW) 02:22:26 437.445
BEESAT 2 05 May 02:18:07 02:19:42 12° 43° (NE) 02:21:17 435.950
DANDE 05 May 02:29:29 02:36:15 53° 78° (ENE) 02:44:14 436.750
TISAT 1 05 May 02:33:33 02:36:15 16° 267° (W) 02:38:57 437.305
BEESAT 05 May 02:37:13 02:41:58 89° 103° (ESE) 02:46:46 436.000
Oscar 19 05 May 02:45:44 02:50:58 86° 284° (WNW) 02:56:09 437.125/150
Gurwin Techsat 1B 05 May 02:59:12 03:04:22 51° 100° (E) 03:09:31 435.225
CUSAT 1 05 May 03:08:20 03:15:32 49° 268° (W) 03:23:10 437.405
AO-7 05 May 03:11:58 03:15:08 12° 89° (E) 03:18:18 29.400- 29.500
RS-15 05 May 03:18:02 03:26:12 20° 11° (N) 03:34:30 29.354- 29.394
JAS-2 05 May 03:20:07 03:27:13 40° 294° (WNW) 03:34:17 435.910
GONETS M04 05 May 03:27:41 03:31:21 13° 301° (WNW) 03:35:01
ITUPSAT 1 05 May 03:35:03 03:38:52 24° 265° (W) 03:42:42 437.325
BEESAT 3 05 May 03:42:10 03:46:03 56° 242° (WSW) 03:49:53 437.485
SWISSCUBE 05 May 03:43:59 03:47:06 17° 267° (W) 03:50:15 437.505
Cosmos 2499 05 May 03:48:12 03:50:40 12° 298° (WNW) 03:53:09 435.465 / 435.565
BEESAT 2 05 May 03:54:04 03:58:03 74° 241° (WSW) 04:02:00 435.950
KKS-1 05 May 04:03:11 04:07:40 88° 257° (WSW) 04:12:11 437.445
AIST 2 05 May 04:09:08 04:11:11 13° 43° (NE) 04:13:14 435.215
ITAMSAT 1 05 May 04:09:31 04:14:43 85° 287° (WNW) 04:19:55 435.822/435.867
DANDE 05 May 04:12:50 04:18:54 31° 270° (W) 04:25:48 436.750
STARS 05 May 04:13:18 04:17:40 60° 74° (ENE) 04:22:04 437.465
MOZHAYETS 4 05 May 04:23:58 04:28:31 87° 255° (WSW) 04:33:07
Oscar 19 05 May 04:28:20 04:29:26 11° 301° (WNW) 04:30:33 437.125/150
Gurwin Techsat 1B 05 May 04:40:08 04:43:55 20° 296° (WNW) 04:47:40 435.225
CUBESAT XI-V 05 May 04:40:51 04:43:33 16° 65° (ENE) 04:46:15 437.345
AO-7 05 May 05:00:45 05:09:07 75° 106° (ESE) 05:17:28 29.400- 29.500
HORYU 2 05 May 05:23:01 05:27:04 35° 98° (E) 05:31:06 437.375
RS-15 05 May 05:31:54 05:43:22 43° 43° (NE) 05:54:51 29.354- 29.394
ISS 05 May 05:34:54 05:36:26 13° 129° (SE) 05:37:58 145.825
AIST 2 05 May 05:46:00 05:50:09 70° 241° (WSW) 05:54:14 435.215
YUBILEINY 05 May 05:50:59 05:59:27 52° 77° (ENE) 06:07:52 435.215
ITAMSAT 1 05 May 05:52:28 05:53:21 10° 301° (WNW) 05:54:16 435.822/435.867
STARS 05 May 05:52:57 05:54:24 11° 269° (W) 05:55:50 437.465
Cosmos 2504 05 May 05:53:11 05:55:26 11° 62° (ENE) 05:57:44 435.465 / 435.565
CUBESAT XI-V 05 May 06:16:01 06:20:29 51° 260° (W) 06:25:00 437.345
NOAA 15 05 May 06:30:26 06:35:09 32° 97° (E) 06:39:51 137.62
NOAA 18 05 May 06:30:42 06:35:19 27° 96° (E) 06:39:54 137.9125
Cosmos 2491 05 May 06:33:30 06:41:54 52° 89° (E) 06:50:22 435.465 / 435.565
BRITE-PL 05 May 06:38:17 06:43:09 29° 94° (E) 06:47:52 437.365/2234.400
Cubesat XI-IV 05 May 06:41:44 06:46:11 27° 95° (E) 06:50:38 437.490
AO-7 05 May 06:54:44 07:01:05 25° 304° (NW) 07:07:27 29.400- 29.500
STRAND 1 05 May 06:57:41 07:02:22 38° 70° (ENE) 07:07:04 437.568
HORYU 2 05 May 07:00:10 07:03:23 20° 294° (WNW) 07:06:35 437.375
SO-50 05 May 07:03:02 07:07:57 89° 123° (ESE) 07:12:54 436.795
ISS 05 May 07:09:18 07:12:31 60° 324° (NW) 07:15:46 145.825
LilacSat-2 05 May 07:13:44 07:17:28 52° 100° (E) 07:21:08 437.200
DOVE 4 05 May 07:21:23 07:24:17 15° 89° (E) 07:27:06 437.250
CUTE-I 05 May 07:35:47 07:41:08 87° 104° (ESE) 07:46:28 437.470
GOMX 1 05 May 07:36:42 07:41:56 48° 98° (E) 07:46:51 467.674
M-CUBED/EXP-1 PRIME 05 May 07:38:29 07:41:09 18° 98° (E) 07:43:42 437.505
Cosmos 2504 05 May 07:42:27 07:50:09 70° 81° (E) 07:58:23 435.465 / 435.565
RS-15 05 May 07:44:29 07:56:35 66° 247° (WSW) 08:08:35 29.354- 29.394
YUBILEINY 05 May 07:48:26 07:55:48 32° 276° (W) 08:03:11 435.215
AUBIESAT-1 05 May 07:54:32 07:57:33 23° 100° (E) 08:00:25 437.475
PRISM 05 May 08:07:07 08:10:50 35° 71° (ENE) 08:14:34 437.425
NOAA 15 05 May 08:10:13 08:14:50 31° 293° (WNW) 08:19:26 137.62
NOAA 18 05 May 08:11:02 08:16:00 37° 292° (WNW) 08:20:57 137.9125
BRITE-PL 05 May 08:16:23 08:21:37 38° 290° (WNW) 08:26:43 437.365/2234.400
Cubesat XI-IV 05 May 08:21:28 08:26:18 36° 291° (WNW) 08:31:07 437.490
HO-68 05 May 08:30:27 08:36:40 31° 96° (E) 08:42:52 435.675
Cosmos 2491 05 May 08:31:16 08:39:00 33° 289° (WNW) 08:46:49 435.465 / 435.565
CANX-2 05 May 08:33:59 08:37:35 27° 96° (E) 08:41:10 2200.000
PHONESAT 2.4 05 May 08:37:27 08:39:55 21° 150° (SSE) 08:42:23 2401.200-2431.200
STRAND 1 05 May 08:37:37 08:41:38 23° 265° (W) 08:45:40 437.568
SO-50 05 May 08:46:23 08:49:07 15° 319° (NW) 08:51:52 436.795
ISS 05 May 08:47:46 08:49:32 14° 342° (NNW) 08:51:18 145.825
LilacSat-2 05 May 08:50:38 08:51:17 10° 295° (WNW) 08:51:55 437.200
DOVE 4 05 May 08:57:26 09:02:22 54° 287° (WNW) 09:07:02 437.250
CUTE 1.7 + AOD 2 05 May 09:05:50 09:10:00 55° 100° (E) 09:14:09 437.475
M-CUBED/EXP-1 PRIME 05 May 09:12:31 09:15:46 26° 296° (WNW) 09:18:48 437.505
GOMX 1 05 May 09:15:35 09:19:34 21° 295° (WNW) 09:23:23 467.674
CUTE-I 05 May 09:18:27 09:20:25 12° 301° (WNW) 09:22:21 437.470
CINEMA 3 05 May 09:21:17 09:25:52 86° 101° (ESE) 09:30:13 145.822/145.860
UNISAT 6 05 May 09:24:35 09:26:25 12° 63° (ENE) 09:28:14 437.425
COMPASS 1 05 May 09:26:40 09:30:44 49° 99° (E) 09:34:46 437.405
SEEDS 05 May 09:28:12 09:32:24 74° 102° (ESE) 09:36:35 437.485
AUBIESAT-1 05 May 09:29:05 09:31:57 21° 298° (WNW) 09:34:40 437.475
Cosmos 2504 05 May 09:37:21 09:42:49 21° 277° (W) 09:48:32 435.465 / 435.565
UWE-3 05 May 09:37:31 09:41:03 25° 95° (E) 09:44:30 435.000/436.395/437.385
TIGRISAT 05 May 09:39:54 09:42:51 17° 66° (ENE) 09:45:47 435.000
PRISM 05 May 09:43:37 09:46:15 17° 266° (W) 09:48:55 437.425
CUBEBUG 2 05 May 09:50:19 09:54:30 54° 100° (E) 09:58:35 437.445
AAUSAT CUBESAT 2 05 May 09:54:44 09:58:54 86° 103° (ESE) 10:03:04 437.432
ZACube-1 05 May 10:01:49 10:05:35 32° 97° (E) 10:09:18 437.345
RS-15 05 May 10:02:10 10:06:33 13° 266° (W) 10:10:55 29.354- 29.394
ANTELSAT 05 May 10:04:09 10:08:14 31° 70° (ENE) 10:12:15 437.575/2403.000
CANX-2 05 May 10:09:56 10:13:18 23° 291° (WNW) 10:16:41 2200.000
PHONESAT 2.4 05 May 10:13:22 10:16:31 85° 160° (SSE) 10:19:40 2401.200-2431.200
HO-68 05 May 10:17:45 10:24:31 47° 293° (WNW) 10:31:16 435.675
Oscar 11 05 May 10:38:10 10:42:28 79° 284° (WNW) 10:46:46 145.826/435.025
HUMSAT D 05 May 10:41:42 10:44:52 22° 95° (E) 10:48:03 437.325/437.525
CUTE 1.7 + AOD 2 05 May 10:43:37 10:45:21 12° 295° (WNW) 10:47:04 437.475
DELFI C3 05 May 10:45:55 10:49:53 60° 101° (E) 10:53:49 145.870
FUNcube-1 05 May 10:53:55 10:58:02 62° 285° (WNW) 11:02:06 145.935
UNISAT 6 05 May 10:57:57 11:02:35 67° 259° (W) 11:07:08 437.425
DUCHIFAT 1 05 May 10:59:23 11:02:35 21° 68° (ENE) 11:05:47 145.980
QB50P2 05 May 11:03:14 11:06:50 27° 69° (ENE) 11:10:26 145.880/145.840
COMPASS 1 05 May 11:03:50 11:05:51 13° 295° (WNW) 11:07:52 437.405
POLYITAN 1 05 May 11:05:24 11:09:01 27° 70° (ENE) 11:12:39 437.675
AIST 1 05 May 11:06:01 11:09:50 28° 76° (ENE) 11:13:36
POPSAT HIP 1 05 May 11:07:13 11:10:51 28° 70° (ENE) 11:14:30 437.405
QB50P1 05 May 11:10:02 11:13:47 30° 70° (ENE) 11:17:32 145.935-145.965
UWE-3 05 May 11:14:02 11:17:25 24° 291° (WNW) 11:20:44 435.000/436.395/437.385
TIGRISAT 05 May 11:14:42 11:19:10 46° 261° (W) 11:23:35 435.000
CUBEBUG 2 05 May 11:28:50 11:30:37 12° 296° (WNW) 11:32:23 437.445
BUGSAT 1 05 May 11:29:29 11:32:45 22° 68° (ENE) 11:36:02 437.445
ESTCUBE 1 05 May 11:32:14 11:35:04 16° 93° (E) 11:37:52 437.505/2401.250
CUBEBUG 1 05 May 11:33:05 11:33:54 10° 90° (E) 11:34:43 437.445
GONETS M04 05 May 11:35:56 11:44:32 56° 78° (ENE) 11:53:00
ZACube-1 05 May 11:38:41 11:41:39 19° 293° (WNW) 11:44:35 437.345
Cosmos 2499 05 May 11:40:38 11:47:35 33° 73° (ENE) 11:54:57 435.465 / 435.565
ANTELSAT 05 May 11:41:12 11:44:55 24° 265° (W) 11:48:37 437.575/2403.000
NANOSAT C BR1 05 May 11:42:40 11:46:55 69° 75° (ENE) 11:51:11 145.865
JAS-2 05 May 11:48:28 11:52:04 16° 56° (NE) 11:55:54 435.910
PHONESAT 2.4 05 May 11:50:20 11:53:28 62° 3° (N) 11:56:34 2401.200-2431.200
DX 1 05 May 11:53:18 11:56:03 16° 93° (E) 11:58:46 434.975-435.025
UKube-1 05 May 11:55:03 11:57:10 13° 92° (E) 11:59:18 .
ISS 05 May 12:02:23 12:04:42 18° 23° (NNE) 12:07:01 145.825
VELOX 1 05 May 12:05:23 12:09:07 26° 96° (E) 12:12:49 145.980
HUMSAT D 05 May 12:17:03 12:20:28 26° 290° (WNW) 12:23:54 437.325/437.525
SPROUT 05 May 12:19:43 12:21:44 13° 91° (E) 12:23:44 437.525
DELFI C3 05 May 12:23:43 12:24:13 10° 296° (WNW) 12:24:43 145.870
AO-85 05 May 12:24:21 12:29:47 75° 118° (ESE) 12:35:12 145.980
Oscar 19 05 May 12:24:53 12:27:42 15° 62° (ENE) 12:30:30 437.125/150
DUCHIFAT 1 05 May 12:34:17 12:38:05 31° 263° (W) 12:41:54 145.980
AISAT 05 May 12:37:22 12:41:49 62° 101° (E) 12:46:13 437.250
QB50P2 05 May 12:39:04 12:42:34 24° 265° (W) 12:46:05 145.880/145.840
POLYITAN 1 05 May 12:41:18 12:44:46 24° 265° (W) 12:48:16 437.675
POPSAT HIP 1 05 May 12:43:09 12:46:35 23° 265° (W) 12:50:03 437.405
AIST 1 05 May 12:43:50 12:47:15 22° 272° (W) 12:50:41
QB50P1 05 May 12:46:16 12:49:33 21° 265° (W) 12:52:52 145.935-145.965
50 SAT 05 May 13:00:45 13:04:19 51° 286° (WNW) 13:07:53 437.505
BUGSAT 1 05 May 13:04:13 13:07:56 30° 263° (W) 13:11:42 437.445
CUBEBUG 1 05 May 13:06:11 13:10:36 65° 285° (WNW) 13:14:58 437.445
ESTCUBE 1 05 May 13:07:44 13:12:03 44° 288° (WNW) 13:16:22 437.505/2401.250
PHONESAT 2.4 05 May 13:27:14 13:30:21 64° 199° (SSW) 13:33:28 2401.200-2431.200
DX 1 05 May 13:28:16 13:32:24 42° 288° (WNW) 13:36:31 434.975-435.025
UKube-1 05 May 13:29:18 13:33:29 49° 287° (WNW) 13:37:40 .
JAS-2 05 May 13:29:56 13:35:57 88° 252° (WSW) 13:42:53 435.910
Cosmos 2499 05 May 13:33:21 13:40:48 49° 270° (W) 13:48:49 435.465 / 435.565
GONETS M04 05 May 13:33:37 13:40:46 30° 277° (W) 13:47:53
ISS 05 May 13:38:13 13:41:28 75° 221° (SW) 13:44:44 145.825
VELOX 1 05 May 13:41:44 13:45:30 27° 291° (WNW) 13:49:16 145.980
O/OREOS (USA 219) 05 May 13:42:17 13:45:19 18° 100° (E) 13:48:22 437.305
ITAMSAT 1 05 May 13:49:29 13:52:30 16° 62° (ENE) 13:55:33 435.822/435.867
SPROUT 05 May 13:53:48 13:57:58 49° 286° (WNW) 14:02:03 437.525
Oscar 19 05 May 14:01:15 14:06:23 68° 258° (WSW) 14:11:36 437.125/150
AO-85 05 May 14:06:57 14:10:51 19° 316° (NW) 14:14:42 145.980
SWISSCUBE 05 May 14:07:53 14:09:54 12° 91° (E) 14:11:54 437.505
AO-7 05 May 14:09:15 14:14:43 20° 52° (NE) 14:20:11 29.400- 29.500
PCSat 05 May 14:15:23 14:18:49 17° 105° (ESE) 14:22:17 145.827
AISAT 05 May 14:15:52 14:17:45 12° 297° (WNW) 14:19:37 437.250
TISAT 1 05 May 14:16:51 14:21:06 85° 103° (ESE) 14:25:17 437.305
Gurwin Techsat 1B 05 May 14:18:57 14:24:13 72° 74° (ENE) 14:29:32 435.225
CUSAT 1 05 May 14:31:10 14:33:51 19° 84° (E) 14:37:02 437.405
BEESAT 05 May 14:39:08 14:43:02 25° 96° (E) 14:46:56 436.000
PHONESAT 2.4 05 May 15:05:00 15:06:49 14° 213° (SSW) 15:08:38 2401.200-2431.200
O/OREOS (USA 219) 05 May 15:20:01 15:24:22 42° 296° (WNW) 15:28:44 437.305
JAS-2 05 May 15:20:04 15:22:11 12° 276° (W) 15:24:23 435.910
ITAMSAT 1 05 May 15:26:18 15:31:26 63° 258° (WSW) 15:36:35 435.822/435.867
ITUPSAT 1 05 May 15:35:29 15:40:17 86° 284° (WNW) 15:45:04 437.325
SO-50 05 May 15:35:59 15:40:39 55° 55° (NE) 15:45:07 436.795
DANDE 05 May 15:40:19 15:43:06 39° 92° (E) 15:46:34 436.750
SWISSCUBE 05 May 15:43:22 15:48:04 63° 286° (WNW) 15:52:47 437.505
KKS-1 05 May 15:56:19 15:59:31 19° 94° (E) 16:02:42 437.445
PCSat 05 May 15:56:20 16:01:41 60° 301° (WNW) 16:07:04 145.827
AO-7 05 May 15:58:04 16:06:22 88° 68° (ENE) 16:14:42 29.400- 29.500
Gurwin Techsat 1B 05 May 16:02:18 16:04:39 13° 270° (W) 16:07:02 435.225
STARS 05 May 16:06:10 16:07:48 12° 91° (E) 16:09:25 437.465
CUSAT 1 05 May 16:12:31 16:15:40 25° 292° (WNW) 16:19:35 437.405
BEESAT 05 May 16:16:36 16:20:49 32° 291° (WNW) 16:25:01 436.000
HORYU 2 05 May 16:19:55 16:23:45 29° 69° (ENE) 16:27:36 437.375
MOZHAYETS 4 05 May 16:20:45 16:24:27 24° 95° (E) 16:28:08
Cosmos 2491 05 May 16:46:07 16:52:53 24° 67° (ENE) 16:59:34 435.465 / 435.565
SO-50 05 May 17:17:57 17:20:36 15° 252° (WSW) 17:23:12 436.795
CUTE-I 05 May 17:19:09 17:22:17 16° 62° (ENE) 17:25:26 437.470
BEESAT 3 05 May 17:31:53 17:35:21 30° 114° (ESE) 17:38:50 437.485
KKS-1 05 May 17:32:05 17:36:11 36° 290° (WNW) 17:40:15 437.445
STARS 05 May 17:40:10 17:44:30 57° 286° (WNW) 17:48:47 437.465
JUGNU 05 May 17:43:17 17:43:46 10° 173° (S) 17:44:14 437.505
PCSat 05 May 17:45:09 17:46:14 11° 321° (NW) 17:47:20 145.827
BEESAT 2 05 May 17:45:24 17:48:40 25° 113° (ESE) 17:51:57 435.950
BRITE-PL 05 May 17:47:54 17:51:57 26° 66° (ENE) 17:56:15 437.365/2234.400
NOAA 15 05 May 17:49:10 17:54:08 45° 70° (ENE) 17:59:10 137.62
LilacSat-2 05 May 17:54:58 17:58:00 22° 70° (ENE) 18:01:03 437.200
AO-7 05 May 17:55:00 18:00:02 17° 269° (W) 18:05:08 29.400- 29.500
NOAA 18 05 May 17:55:31 18:00:47 47° 70° (ENE) 18:06:02 137.9125
HORYU 2 05 May 17:56:39 18:00:16 24° 264° (W) 18:03:55 437.375
MOZHAYETS 4 05 May 17:57:35 18:01:36 30° 290° (WNW) 18:05:36
Cubesat XI-IV 05 May 18:02:23 18:07:18 39° 70° (ENE) 18:12:14 437.490
CUBESAT XI-V 05 May 18:13:38 18:18:07 42° 99° (E) 18:22:35 437.345
M-CUBED/EXP-1 PRIME 05 May 18:22:34 18:26:30 27° 64° (ENE) 18:30:23 437.505
DOVE 4 05 May 18:25:22 18:28:26 16° 63° (ENE) 18:31:33 437.250
AUBIESAT-1 05 May 18:38:17 18:42:23 32° 65° (ENE) 18:46:23 437.475
Cosmos 2491 05 May 18:41:46 18:50:31 72° 267° (W) 18:59:12 435.465 / 435.565
GOMX 1 05 May 18:42:49 18:47:38 44° 71° (ENE) 18:52:43 467.674
YUBILEINY 05 May 18:49:56 18:58:29 62° 91° (E) 19:07:01 435.215
CUTE-I 05 May 18:56:29 19:01:46 65° 258° (WSW) 19:07:03 437.470
HO-68 05 May 18:59:01 19:04:11 22° 58° (ENE) 19:09:20 435.675
BEESAT 3 05 May 19:09:55 19:13:04 22° 311° (NW) 19:16:13 437.485
STRAND 1 05 May 19:10:50 19:13:28 14° 91° (E) 19:16:06 437.568
BEESAT 2 05 May 19:23:00 19:26:25 27° 309° (NW) 19:29:52 435.950
BRITE-PL 05 May 19:25:44 19:30:11 35° 265° (W) 19:35:00 437.365/2234.400
CANX-2 05 May 19:26:23 19:29:08 17° 67° (ENE) 19:31:53 2200.000
LilacSat-2 05 May 19:29:04 19:32:12 23° 265° (W) 19:35:21 437.200
NOAA 15 05 May 19:30:11 19:34:06 21° 266° (W) 19:38:03 137.62
JUGNU 05 May 19:30:26 19:31:50 11° 184° (S) 19:33:13 437.505
NOAA 18 05 May 19:37:30 19:41:38 22° 266° (W) 19:45:47 137.9125
AIST 2 05 May 19:42:31 19:46:10 31° 114° (ESE) 19:49:50 435.215
Cubesat XI-IV 05 May 19:43:11 19:47:28 24° 265° (W) 19:51:47 437.490
CUBESAT XI-V 05 May 19:51:53 19:55:10 19° 294° (WNW) 19:58:27 437.345
M-CUBED/EXP-1 PRIME 05 May 19:56:40 20:00:53 32° 258° (WSW) 20:05:03 437.505
RS-15 05 May 19:57:20 20:05:23 23° 100° (E) 20:13:40 29.354- 29.394
CUTE 1.7 + AOD 2 05 May 19:57:22 20:01:08 33° 72° (ENE) 20:04:54 437.475
DOVE 4 05 May 20:00:24 20:05:29 66° 259° (W) 20:10:47 437.250
AUBIESAT-1 05 May 20:12:55 20:16:47 26° 259° (W) 20:20:37 437.475
COMPASS 1 05 May 20:16:29 20:20:00 28° 70° (ENE) 20:23:32 437.405
SEEDS 05 May 20:18:37 20:22:32 41° 73° (ENE) 20:26:28 437.485
Cosmos 2504 05 May 20:19:53 20:26:58 59° 92° (E) 20:33:58 435.465 / 435.565
CINEMA 3 05 May 20:20:30 20:25:29 68° 75° (ENE) 20:30:28 145.822/145.860
GOMX 1 05 May 20:22:03 20:25:54 21° 269° (W) 20:29:56 467.674
UWE-3 05 May 20:33:21 20:36:47 21° 68° (ENE) 20:40:09 435.000/436.395/437.385
SRMSAT 05 May 20:35:37 20:37:30 11° 178° (S) 20:39:23 437.500
Cosmos 2491 05 May 20:43:04 20:45:37 12° 286° (WNW) 20:48:10 435.465 / 435.565
AAUSAT CUBESAT 2 05 May 20:43:38 20:47:33 45° 74° (ENE) 20:51:29 437.432
HO-68 05 May 20:44:03 20:51:11 72° 256° (WSW) 20:58:21 435.675
CUBEBUG 2 05 May 20:46:33 20:50:59 41° 72° (ENE) 20:55:20 437.445
STRAND 1 05 May 20:47:59 20:53:03 63° 287° (WNW) 20:58:05 437.568
YUBILEINY 05 May 20:48:42 20:55:49 27° 291° (WNW) 21:02:57 435.215
ZACube-1 05 May 20:56:26 21:00:03 24° 69° (ENE) 21:03:37 437.345
AO-85 05 May 20:58:17 21:02:52 43° 53° (NE) 21:07:00 145.980
CANX-2 05 May 21:00:46 21:04:41 37° 262° (W) 21:08:37 2200.000
AIST 2 05 May 21:21:18 21:24:40 24° 311° (NW) 21:28:04 435.215
PRISM 05 May 21:24:34 21:28:44 70° 101° (ESE) 21:32:53 437.425
DELFI C3 05 May 21:30:59 21:34:23 28° 71° (ENE) 21:37:48 145.870
Oscar 11 05 May 21:31:18 21:35:34 66° 76° (ENE) 21:39:51 145.826/435.025
HUMSAT D 05 May 21:32:50 21:35:06 14° 66° (ENE) 21:37:21 437.325/437.525
CUTE 1.7 + AOD 2 05 May 21:34:04 21:37:02 19° 266° (W) 21:40:01 437.475
FUNcube-1 05 May 21:47:26 21:51:57 84° 77° (ENE) 21:56:23 145.935
COMPASS 1 05 May 21:52:22 21:55:33 21° 265° (W) 21:58:44 437.405
SEEDS 05 May 21:56:07 21:58:25 14° 268° (W) 22:00:44 437.485
CINEMA 3 05 May 22:00:47 22:03:01 13° 270° (W) 22:05:15 145.822/145.860
UWE-3 05 May 22:08:43 22:12:59 36° 262° (W) 22:17:12 435.000/436.395/437.385
